QPF
0.00 0.00 0.01 0.02 0.02 0.02 0.02 0.01 0.01 0.01 0.01 0.01 0.01 0.01 0.02 0.02 0.02 0.02 0.03 0.05 0.06 0.04 0.03 0.03 0.03 0.03 0.02 0.02 0.03 0.02 0.01 0.01 0.01 0.02 0.03 0.03 0.03 0.03 0.02 0.02 0.03 0.03 0.02
0.00 0.00 0.01 0.01 0.02 0.02 0.01 0.01 0.01 0.01 0.01 0.01 0.01 0.01 0.01 0.02 0.03 0.03 0.03 0.04 0.05 0.04 0.03 0.03 0.02 0.03 0.03 0.03 0.02 0.02 0.01 0.01 0.01 0.01 0.02 0.02 0.02 0.02 0.02 0.02 0.03 0.02 0.01
0.00 0.00 0.01 0.01 0.02 0.02 0.01 0.01 0.01 0.02 0.02 0.02 0.01 0.01 0.01 0.02 0.03 0.03 0.03 0.04 0.04 0.03 0.03 0.03 0.02 0.02 0.02 0.03 0.03 0.01 0.01 0.00 0.01 0.02 0.03 0.03 0.03 0.03 0.03 0.03 0.04 0.03 0.02
0.01 0.00 0.00 0.01 0.02 0.03 0.01 0.01 0.02 0.02 0.02 0.02 0.02 0.02 0.01 0.02 0.02 0.02 0.02 0.04 0.03 0.03 0.03 0.03 0.02 0.02 0.02 0.02 0.02 0.01 0.01 0.01 0.02 0.04 0.03 0.03 0.03 0.03 0.03 0.04 0.05 0.04 0.03
0.01 0.01 0.00 0.01 0.03 0.03 0.01 0.01 0.02 0.02 0.02 0.02 0.02 0.03 0.03 0.03 0.02 0.02 0.02 0.04 0.04 0.04 0.03 0.03 0.03 0.02 0.02 0.02 0.02 0.01 0.01 0.02 0.02 0.02 0.03 0.02 0.02 0.04 0.04 0.04 0.05 0.05 0.03
0.01 0.01 0.01 0.01 0.03 0.03 0.02 0.01 0.02 0.02 0.02 0.02 0.02 0.02 0.03 0.04 0.04 0.03 0.02 0.04 0.04 0.04 0.03 0.03 0.03 0.02 0.02 0.02 0.02 0.01 0.01 0.02 0.01 0.01 0.02 0.01 0.02 0.04 0.05 0.04 0.03 0.03 0.03
0.03 0.01 0.01 0.02 0.04 0.04 0.03 0.02 0.02 0.02 0.01 0.01 0.01 0.02 0.03 0.04 0.05 0.04 0.06 0.11 0.10 0.08 0.05 0.04 0.03 0.03 0.03 0.03 0.02 0.02 0.02 0.01 0.01 0.01 0.01 0.01 0.02 0.03 0.04 0.04 0.03 0.03 0.04
0.03 0.02 0.01 0.02 0.04 0.04 0.04 0.04 0.03 0.02 0.01 0.01 0.02 0.03 0.04 0.04 0.05 0.05 0.08 0.08 0.06 0.05 0.05 0.03 0.02 0.03 0.03 0.03 0.02 0.02 0.01 0.01 0.01 0.00 0.01 0.01 0.02 0.03 0.04 0.04 0.04 0.04 0.03
0.03 0.03 0.03 0.02 0.04 0.05 0.07 0.06 0.04 0.02 0.01 0.01 0.02 0.03 0.05 0.04 0.05 0.05 0.05 0.04 0.03 0.03 0.03 0.05 0.06 0.05 0.04 0.02 0.02 0.01 0.01 0.01 0.01 0.01 0.01 0.02 0.04 0.05 0.06 0.05 0.04 0.03 0.02
0.03 0.04 0.04 0.03 0.06 0.06 0.07 0.07 0.04 0.02 0.01 0.01 0.01 0.02 0.03 0.03 0.04 0.04 0.04 0.04 0.03 0.04 0.04 0.05 0.05 0.04 0.03 0.01 0.01 0.01 0.01 0.01 0.01 0.01 0.01 0.03 0.05 0.06 0.05 0.04 0.03 0.02 0.01
0.02 0.03 0.04 0.06 0.07 0.07 0.07 0.06 0.04 0.02 0.02 0.01 0.01 0.01 0.02 0.02 0.02 0.02 0.02 0.03 0.03 0.03 0.04 0.04 0.04 0.05 0.03 0.01 0.01 0.01 0.02 0.02 0.01 0.01 0.01 0.03 0.04 0.04 0.03 0.03 0.02 0.01 0.02
0.03 0.03 0.03 0.04 0.05 0.06 0.06 0.04 0.03 0.03 0.03 0.01 0.01 0.01 0.02 0.02 0.02 0.01 0.02 0.04 0.03 0.03 0.02 0.02 0.02 0.03 0.03 0.02 0.02 0.02 0.02 0.02 0.02 0.01 0.02 0.03 0.04 0.03 0.03 0.02 0.01 0.01 0.02
0.02 0.01 0.02 0.02 0.03 0.05 0.04 0.03 0.04 0.04 0.04 0.03 0.02 0.01 0.02 0.02 0.01 0.01 0.01 0.01 0.01 0.01 0.02 0.02 0.01 0.02 0.02 0.02 0.02 0.02 0.02 0.02 0.02 0.02 0.03 0.03 0.04 0.04 0.02 0.02 0.02 0.02 0.02
0.03 0.02 0.02 0.02 0.02 0.03 0.04 0.03 0.03 0.04 0.03 0.03 0.02 0.01 0.01 0.01 0.01 0.01 0.01 0.01 0.01 0.01 0.02 0.02 0.01 0.01 0.02 0.02 0.02 0.01 0.02 0.02 0.02 0.02 0.02 0.02 0.03 0.02 0.02 0.02 0.02 0.03 0.03
0.04 0.03 0.02 0.02 0.02 0.03 0.04 0.03 0.03 0.03 0.02 0.02 0.02 0.01 0.01 0.01 0.01 0.01 0.01 0.01 0.01 0.01 0.01 0.01 0.01 0.01 0.01 0.02 0.02 0.02 0.02 0.02 0.02 0.01 0.01 0.01 0.01 0.01 0.01 0.02 0.02 0.02 0.03
0.04 0.03 0.01 0.02 0.02 0.03 0.03 0.03 0.03 0.03 0.03 0.03 0.02 0.02 0.01 0.01 0.01 0.01 0.01 0.01 0.01 0.01 0.01 0.01 0.01 0.01 0.00 0.01 0.02 0.02 0.03 0.02 0.02 0.02 0.01 0.01 0.00 0.00 0.00 0.01 0.02 0.03 0.03
0.05 0.05 0.02 0.01 0.02 0.03 0.02 0.01 0.02 0.04 0.05 0.04 0.03 0.03 0.02 0.01 0.01 0.00 0.00 0.01 0.01 0.01 0.01 0.01 0.01 0.01 0.01 0.01 0.01 0.02 0.02 0.03 0.02 0.02 0.02 0.01 0.01 0.01 0.00 0.01 0.01 0.02 0.03
0.05 0.07 0.07 0.03 0.03 0.04 0.03 0.01 0.01 0.02 0.04 0.04 0.03 0.03 0.02 0.02 0.01 0.01 0.01 0.00 0.01 0.01 0.01 0.01 0.01 0.01 0.01 0.01 0.02 0.02 0.02 0.02 0.02 0.02 0.02 0.02 0.01 0.01 0.01 0.01 0.01 0.02 0.03
0.04 0.06 0.08 0.07 0.04 0.05 0.06 0.04 0.02 0.02 0.03 0.04 0.04 0.03 0.03 0.03 0.03 0.02 0.01 0.01 0.01 0.01 0.02 0.01 0.01 0.01 0.01 0.01 0.02 0.03 0.03 0.02 0.01 0.02 0.02 0.02 0.01 0.01 0.02 0.01 0.01 0.02 0.03
0.04 0.05 0.06 0.07 0.06 0.06 0.07 0.08 0.06 0.03 0.02 0.02 0.02 0.02 0.02 0.03 0.04 0.04 0.03 0.01 0.01 0.02 0.02 0.02 0.02 0.01 0.01 0.01 0.01 0.02 0.03 0.03 0.03 0.02 0.01 0.01 0.01 0.02 0.02 0.02 0.02 0.02 0.04
0.04 0.05 0.05 0.05 0.06 0.06 0.06 0.06 0.06 0.05 0.04 0.04 0.03 0.02 0.01 0.02 0.02 0.03 0.03 0.02 0.02 0.02 0.02 0.02 0.02 0.01 0.01 0.01 0.01 0.01 0.01 0.02 0.03 0.03 0.03 0.02 0.02 0.02 0.03 0.04 0.03 0.02 0.03
0.03 0.04 0.05 0.05 0.06 0.05 0.06 0.06 0.06 0.06 0.06 0.05 0.05 0.05 0.03 0.02 0.02 0.02 0.03 0.03 0.03 0.03 0.02 0.03 0.03 0.02 0.01 0.01 0.01 0.01 0.01 0.01 0.01 0.02 0.02 0.03 0.04 0.04 0.06 0.05 0.02 0.03 0.02
0.02 0.03 0.04 0.05 0.04 0.04 0.05 0.06 0.05 0.06 0.06 0.06 0.06 0.06 0.06 0.05 0.03 0.02 0.02 0.03 0.03 0.04 0.04 0.03 0.03 0.03 0.02 0.01 0.01 0.01 0.01 0.01 0.01 0.01 0.01 0.01 0.02 0.04 0.05 0.04 0.03 0.02 0.03
0.02 0.02 0.03 0.04 0.03 0.03 0.03 0.04 0.04 0.04 0.04 0.04 0.04 0.04 0.05 0.06 0.06 0.04 0.04 0.05 0.07 0.07 0.09 0.07 0.05 0.05 0.04 0.03 0.03 0.02 0.01 0.01 0.00 0.01 0.01 0.01 0.01 0.01 0.03 0.04 0.03 0.02 0.02
0.02 0.02 0.02 0.02 0.02 0.02 0.02 0.03 0.03 0.03 0.03 0.03 0.04 0.04 0.04 0.04 0.05 0.06 0.07 0.08 0.10 0.09 0.10 0.09 0.08 0.06 0.05 0.05 0.04 0.03 0.02 0.01 0.01 0.00 0.01 0.01 0.01 0.01 0.01 0.01 0.02 0.03 0.03
0.01 0.02 0.02 0.02 0.02 0.01 0.01 0.02 0.03 0.03 0.04 0.04 0.05 0.05 0.05 0.05 0.06 0.06 0.07 0.09 0.11 0.09 0.08 0.09 0.09 0.08 0.06 0.04 0.03 0.02 0.02 0.01 0.01 0.01 0.01 0.01 0.01 0.01 0.01 0.01 0.00 0.01 0.01
MSLP
1018.57 1018.86 1019.14 1019.44 1019.77 1020.13 1020.51 1020.87 1021.18 1021.42 1021.58 1021.66 1021.69 1021.69 1021.70 1021.74 1021.82 1021.94 1022.10 1022.26 1022.43 1022.57 1022.67 1022.74 1022.76 1022.75 1022.70 1022.64 1022.56 1022.48 1022.38 1022.28 1022.16 1022.04 1021.91 1021.76 1021.61 1021.45 1021.29 1021.13 1020.98 1020.82 1020.66
1018.35 1018.67 1019.00 1019.37 1019.78 1020.21 1020.63 1021.02 1021.34 1021.58 1021.74 1021.83 1021.89 1021.94 1022.00 1022.11 1022.25 1022.42 1022.60 1022.78 1022.94 1023.08 1023.18 1023.24 1023.27 1023.26 1023.23 1023.17 1023.10 1023.01 1022.91 1022.80 1022.70 1022.59 1022.49 1022.39 1022.28 1022.17 1022.04 1021.91 1021.76 1021.60 1021.43
1018.23 1018.57 1018.93 1019.35 1019.82 1020.30 1020.76 1021.17 1021.49 1021.74 1021.90 1022.01 1022.09 1022.19 1022.31 1022.47 1022.65 1022.86 1023.06 1023.24 1023.40 1023.52 1023.61 1023.67 1023.70 1023.69 1023.66 1023.60 1023.52 1023.43 1023.33 1023.24 1023.15 1023.09 1023.04 1022.99 1022.95 1022.89 1022.80 1022.69 1022.54 1022.38 1022.20
1018.20 1018.54 1018.94 1019.40 1019.90 1020.42 1020.90 1021.32 1021.66 1021.90 1022.07 1022.20 1022.31 1022.45 1022.61 1022.81 1023.02 1023.24 1023.45 1023.63 1023.78 1023.90 1023.98 1024.04 1024.07 1024.07 1024.04 1023.98 1023.90 1023.80 1023.71 1023.63 1023.58 1023.56 1023.56 1023.58 1023.60 1023.59 1023.54 1023.45 1023.31 1023.14 1022.95
1018.23 1018.58 1018.99 1019.48 1020.01 1020.55 1021.06 1021.49 1021.83 1022.08 1022.26 1022.41 1022.55 1022.72 1022.91 1023.12 1023.35 1023.58 1023.79 1023.96 1024.11 1024.23 1024.32 1024.39 1024.43 1024.44 1024.42 1024.36 1024.28 1024.18 1024.09 1024.03 1024.00 1024.02 1024.08 1024.16 1024.23 1024.26 1024.24 1024.16 1024.03 1023.85 1023.66
1018.29 1018.64 1019.06 1019.57 1020.12 1020.68 1021.20 1021.65 1022.00 1022.27 1022.47 1022.64 1022.81 1022.99 1023.20 1023.43 1023.66 1023.89 1024.09 1024.26 1024.42 1024.55 1024.66 1024.76 1024.82 1024.86 1024.85 1024.80 1024.71 1024.61 1024.52 1024.46 1024.46 1024.51 1024.61 1024.73 1024.83 1024.89 1024.89 1024.82 1024.68 1024.50 1024.31
1018.37 1018.71 1019.14 1019.65 1020.22 1020.79 1021.32 1021.78 1022.15 1022.45 1022.68 1022.88 1023.08 1023.28 1023.51 1023.74 1023.97 1024.19 1024.38 1024.56 1024.73 1024.89 1025.04 1025.17 1025.28 1025.34 1025.35 1025.30 1025.22 1025.11 1025.01 1024.95 1024.96 1025.02 1025.14 1025.27 1025.39 1025.46 1025.46 1025.39 1025.26 1025.08 1024.90
1018.45 1018.78 1019.20 1019.71 1020.28 1020.85 1021.39 1021.86 1022.26 1022.58 1022.85 1023.10 1023.33 1023.57 1023.82 1024.06 1024.29 1024.51 1024.70 1024.89 1025.08 1025.26 1025.45 1025.62 1025.77 1025.86 1025.89 1025.86 1025.77 1025.65 1025.54 1025.48 1025.47 1025.54 1025.65 1025.79 1025.91 1025.98 1025.97 1025.90 1025.77 1025.60 1025.44
1018.54 1018.86 1019.26 1019.76 1020.30 1020.86 1021.40 1021.88 1022.30 1022.66 1022.98 1023.27 1023.56 1023.84 1024.12 1024.38 1024.62 1024.85 1025.05 1025.24 1025.44 1025.66 1025.87 1026.08 1026.26 1026.38 1026.42 1026.39 1026.30 1026.18 1026.06 1025.99 1025.98 1026.03 1026.14 1026.26 1026.37 1026.43 1026.42 1026.35 1026.22 1026.07 1025.94
1018.64 1018.94 1019.32 1019.79 1020.31 1020.84 1021.36 1021.84 1022.27 1022.66 1023.03 1023.38 1023.73 1024.07 1024.39 1024.69 1024.95 1025.18 1025.40 1025.60 1025.81 1026.04 1026.27 1026.50 1026.69 1026.83 1026.88 1026.86 1026.77 1026.65 1026.53 1026.45 1026.43 1026.48 1026.58 1026.69 1026.79 1026.84 1026.83 1026.76 1026.64 1026.52 1026.42
1018.71 1019.00 1019.37 1019.81 1020.29 1020.79 1021.28 1021.74 1022.18 1022.60 1023.01 1023.41 1023.82 1024.22 1024.60 1024.94 1025.24 1025.50 1025.72 1025.93 1026.14 1026.37 1026.60 1026.83 1027.03 1027.17 1027.23 1027.22 1027.14 1027.03 1026.91 1026.84 1026.82 1026.87 1026.96 1027.07 1027.17 1027.22 1027.20 1027.14 1027.05 1026.95 1026.87
1018.71 1019.02 1019.38 1019.81 1020.26 1020.72 1021.18 1021.62 1022.04 1022.47 1022.91 1023.37 1023.83 1024.30 1024.73 1025.13 1025.46 1025.74 1025.98 1026.20 1026.41 1026.63 1026.85 1027.07 1027.26 1027.40 1027.46 1027.46 1027.40 1027.30 1027.21 1027.15 1027.15 1027.20 1027.30 1027.40 1027.50 1027.55 1027.55 1027.50 1027.43 1027.36 1027.31
1018.59 1018.93 1019.33 1019.75 1020.19 1020.63 1021.05 1021.46 1021.87 1022.30 1022.76 1023.25 1023.76 1024.27 1024.76 1025.20 1025.58 1025.89 1026.15 1026.38 1026.59 1026.80 1027.02 1027.22 1027.40 1027.53 1027.61 1027.61 1027.57 1027.50 1027.44 1027.40 1027.42 1027.48 1027.58 1027.69 1027.78 1027.84 1027.86 1027.83 1027.78 1027.74 1027.72
1018.30 1018.71 1019.15 1019.62 1020.07 1020.50 1020.90 1021.29 1021.68 1022.10 1022.56 1023.06 1023.60 1024.14 1024.67 1025.16 1025.58 1025.93 1026.22 1026.46 1026.68 1026.90 1027.10 1027.31 1027.48 1027.62 1027.70 1027.73 1027.72 1027.68 1027.64 1027.63 1027.66 1027.73 1027.82 1027.93 1028.02 1028.09 1028.11 1028.11 1028.09 1028.07 1028.08
1017.81 1018.32 1018.84 1019.36 1019.85 1020.30 1020.71 1021.09 1021.47 1021.88 1022.33 1022.83 1023.37 1023.93 1024.48 1025.00 1025.45 1025.84 1026.17 1026.44 1026.69 1026.92 1027.14 1027.35 1027.54 1027.70 1027.80 1027.86 1027.87 1027.87 1027.86 1027.86 1027.89 1027.95 1028.04 1028.14 1028.22 1028.28 1028.32 1028.33 1028.34 1028.35 1028.38
1017.17 1017.77 1018.38 1018.98 1019.53 1020.02 1020.46 1020.86 1021.24 1021.64 1022.07 1022.56 1023.09 1023.64 1024.20 1024.73 1025.21 1025.63 1026.00 1026.32 1026.61 1026.87 1027.13 1027.37 1027.59 1027.78 1027.92 1028.02 1028.07 1028.09 1028.10 1028.11 1028.13 1028.18 1028.24 1028.30 1028.36 1028.42 1028.45 1028.48 1028.51 1028.55 1028.61
1016.43 1017.11 1017.81 1018.48 1019.10 1019.65 1020.14 1020.57 1020.97 1021.37 1021.79 1022.26 1022.76 1023.30 1023.84 1024.37 1024.86 1025.31 1025.72 1026.09 1026.43 1026.75 1027.06 1027.36 1027.63 1027.86 1028.05 1028.19 1028.28 1028.33 1028.36 1028.37 1028.38 1028.39 1028.42 1028.44 1028.47 1028.51 1028.54 1028.58 1028.63 1028.70 1028.79
1015.71 1016.43 1017.17 1017.90 1018.58 1019.20 1019.74 1020.21 1020.65 1021.06 1021.48 1021.93 1022.40 1022.90 1023.42 1023.93 1024.43 1024.90 1025.34 1025.76 1026.16 1026.54 1026.91 1027.27 1027.60 1027.89 1028.14 1028.33 1028.46 1028.55 1028.59 1028.61 1028.60 1028.59 1028.58 1028.57 1028.57 1028.57 1028.60 1028.64 1028.71 1028.81 1028.93
1015.10 1015.81 1016.55 1017.30 1018.02 1018.67 1019.26 1019.79 1020.26 1020.70 1021.13 1021.55 1022.00 1022.46 1022.94 1023.43 1023.91 1024.39 1024.86 1025.32 1025.76 1026.21 1026.64 1027.06 1027.46 1027.81 1028.12 1028.37 1028.56 1028.68 1028.76 1028.79 1028.78 1028.76 1028.72 1028.68 1028.65 1028.64 1028.65 1028.70 1028.78 1028.90 1029.04
1014.68 1015.32 1016.01 1016.73 1017.43 1018.10 1018.73 1019.29 1019.80 1020.27 1020.70 1021.12 1021.55 1021.98 1022.42 1022.87 1023.33 1023.81 1024.28 1024.76 1025.25 1025.74 1026.22 1026.70 1027.14 1027.56 1027.93 1028.24 1028.49 1028.67 1028.79 1028.86 1028.88 1028.86 1028.82 1028.78 1028.74 1028.71 1028.72 1028.77 1028.86 1028.98 1029.14
1014.50 1015.01 1015.59 1016.22 1016.87 1017.52 1018.14 1018.73 1019.26 1019.75 1020.20 1020.62 1021.02 1021.42 1021.83 1022.25 1022.69 1023.14 1023.62 1024.11 1024.62 1025.13 1025.64 1026.15 1026.64 1027.10 1027.52 1027.89 1028.21 1028.46 1028.64 1028.77 1028.84 1028.87 1028.86 1028.84 1028.81 1028.79 1028.80 1028.84 1028.93 1029.06 1029.21
1014.53 1014.88 1015.31 1015.80 1016.35 1016.94 1017.53 1018.10 1018.65 1019.15 1019.61 1020.03 1020.42 1020.80 1021.18 1021.57 1021.98 1022.42 1022.88 1023.37 1023.88 1024.40 1024.92 1025.45 1025.96 1026.45 1026.90 1027.32 1027.70 1028.02 1028.28 1028.49 1028.65 1028.74 1028.80 1028.83 1028.83 1028.84 1028.86 1028.90 1028.98 1029.09 1029.24
1014.71 1014.89 1015.14 1015.48 1015.90 1016.39 1016.91 1017.45 1017.98 1018.48 1018.93 1019.34 1019.73 1020.09 1020.45 1020.82 1021.22 1021.64 1022.09 1022.57 1023.07 1023.58 1024.10 1024.61 1025.12 1025.61 1026.09 1026.54 1026.96 1027.35 1027.70 1027.99 1028.24 1028.44 1028.58 1028.68 1028.74 1028.79 1028.83 1028.88 1028.95 1029.05 1029.17
1014.98 1014.99 1015.07 1015.25 1015.53 1015.90 1016.33 1016.81 1017.29 1017.76 1018.19 1018.59 1018.96 1019.31 1019.65 1020.01 1020.39 1020.80 1021.25 1021.72 1022.20 1022.70 1023.20 1023.70 1024.18 1024.66 1025.13 1025.60 1026.05 1026.48 1026.89 1027.28 1027.62 1027.91 1028.15 1028.34 1028.48 1028.58 1028.66 1028.72 1028.79 1028.88 1028.98
1015.24 1015.12 1015.06 1015.10 1015.24 1015.48 1015.82 1016.20 1016.62 1017.04 1017.43 1017.79 1018.13 1018.46 1018.79 1019.14 1019.51 1019.92 1020.36 1020.83 1021.31 1021.80 1022.28 1022.74 1023.20 1023.66 1024.10 1024.55 1025.01 1025.46 1025.91 1026.35 1026.77 1027.15 1027.48 1027.76 1027.98 1028.15 1028.28 1028.38 1028.47 1028.55 1028.64
1015.46 1015.25 1015.09 1015.01 1015.03 1015.17 1015.40 1015.69 1016.02 1016.36 1016.69 1017.00 1017.29 1017.58 1017.88 1018.21 1018.58 1018.99 1019.43 1019.91 1020.39 1020.87 1021.34 1021.79 1022.22 1022.64 1023.05 1023.47 1023.90 1024.35 1024.81 1025.27 1025.74 1026.18 1026.58 1026.94 1027.25 1027.50 1027.69 1027.84 1027.96 1028.07 1028.17
Thickness
5698 5696 5692 5691 5689 5688 5686 5685 5684 5682 5681 5679 5679 5678 5677 5676 5675 5674 5674 5673 5673 5672 5671 5671 5670 5669 5669 5668 5668 5667 5667 5667 5666 5666 5666 5666 5666 5665 5665 5664 5664 5663 5663
5697 5693 5689 5688 5687 5685 5683 5681 5680 5678 5677 5676 5675 5674 5673 5672 5672 5671 5670 5669 5668 5668 5667 5667 5666 5665 5664 5664 5663 5663 5662 5662 5661 5662 5662 5661 5661 5661 5660 5659 5659 5659 5658
5694 5689 5686 5685 5683 5682 5680 5678 5676 5675 5674 5672 5671 5671 5670 5669 5668 5667 5666 5666 5665 5664 5663 5662 5662 5661 5660 5659 5659 5658 5658 5658 5657 5657 5657 5657 5656 5656 5655 5654 5654 5654 5653
5690 5686 5683 5681 5679 5678 5677 5675 5673 5672 5670 5669 5668 5667 5666 5665 5664 5663 5662 5662 5661 5660 5659 5658 5658 5657 5656 5655 5654 5654 5653 5653 5653 5653 5653 5652 5652 5651 5650 5649 5648 5648 5648
5685 5682 5679 5677 5676 5674 5673 5671 5670 5668 5667 5665 5664 5664 5662 5661 5660 5659 5659 5658 5657 5656 5655 5655 5654 5653 5652 5651 5650 5650 5649 5649 5649 5649 5648 5647 5647 5645 5645 5644 5643 5642 5642
5681 5678 5675 5673 5672 5671 5669 5668 5666 5665 5663 5662 5661 5660 5659 5657 5656 5655 5655 5654 5653 5652 5651 5651 5650 5649 5648 5647 5646 5646 5646 5645 5645 5644 5643 5642 5641 5640 5639 5638 5637 5637 5637
5676 5674 5671 5669 5668 5666 5665 5664 5662 5661 5659 5658 5657 5656 5654 5653 5652 5651 5651 5649 5648 5648 5647 5646 5645 5644 5644 5643 5642 5641 5641 5641 5640 5639 5638 5636 5636 5635 5634 5633 5632 5631 5631
5671 5669 5667 5664 5663 5662 5661 5660 5658 5657 5655 5654 5652 5651 5650 5649 5648 5647 5646 5645 5644 5643 5643 5642 5641 5640 5639 5638 5637 5637 5636 5636 5635 5633 5632 5631 5630 5629 5628 5627 5626 5626 5626
5665 5664 5662 5660 5658 5657 5656 5655 5653 5652 5651 5649 5648 5647 5645 5644 5643 5642 5642 5641 5640 5639 5638 5637 5636 5635 5634 5633 5632 5632 5631 5630 5629 5628 5627 5626 5625 5624 5623 5622 5621 5621 5620
5659 5658 5657 5655 5653 5652 5651 5650 5649 5647 5646 5645 5643 5642 5640 5639 5638 5637 5637 5636 5635 5634 5633 5632 5631 5630 5629 5628 5627 5627 5626 5625 5624 5622 5621 5619 5619 5618 5617 5616 5616 5615 5615
5653 5652 5651 5650 5649 5648 5646 5645 5644 5642 5641 5639 5638 5637 5636 5635 5634 5633 5631 5630 5630 5628 5627 5626 5626 5625 5623 5623 5623 5622 5621 5620 5619 5616 5614 5613 5613 5612 5611 5611 5610 5610 5610
5645 5646 5646 5645 5644 5643 5642 5640 5639 5637 5636 5634 5633 5632 5631 5630 5629 5628 5627 5625 5624 5623 5622 5621 5620 5619 5618 5618 5618 5617 5616 5615 5613 5611 5609 5607 5606 5606 5605 5605 5605 5605 5605
5639 5640 5640 5640 5639 5638 5637 5635 5634 5633 5631 5629 5628 5627 5626 5625 5624 5622 5621 5620 5619 5618 5617 5616 5615 5614 5614 5613 5613 5612 5611 5610 5608 5606 5603 5602 5600 5600 5600 5600 5600 5600 5600
5634 5634 5635 5635 5634 5633 5631 5630 5629 5627 5626 5624 5623 5622 5621 5619 5618 5617 5616 5615 5614 5613 5612 5611 5610 5610 5609 5608 5608 5607 5606 5604 5603 5601 5599 5597 5596 5595 5595 5595 5595 5595 5596
5628 5628 5628 5629 5628 5627 5626 5625 5624 5622 5621 5619 5618 5616 5615 5614 5613 5612 5610 5609 5608 5607 5606 5605 5605 5605 5604 5603 5602 5601 5600 5599 5598 5596 5594 5593 5592 5591 5590 5590 5590 5591 5591
5623 5622 5622 5622 5622 5621 5620 5619 5619 5617 5615 5614 5612 5611 5609 5608 5607 5606 5605 5603 5602 5601 5601 5600 5599 5599 5598 5597 5597 5596 5594 5593 5593 5591 5589 5588 5587 5586 5586 5585 5585 5586 5586
5617 5617 5616 5616 5615 5615 5614 5613 5612 5611 5610 5608 5607 5605 5604 5602 5601 5600 5599 5597 5596 5595 5595 5594 5593 5592 5592 5591 5591 5590 5589 5588 5588 5587 5585 5584 5583 5582 5582 5581 5581 5581 5580
5610 5610 5610 5610 5609 5608 5607 5607 5606 5605 5604 5602 5600 5599 5598 5597 5595 5594 5593 5592 5590 5589 5588 5587 5587 5585 5585 5584 5584 5584 5583 5583 5582 5582 5581 5580 5579 5578 5577 5576 5575 5575 5575
5602 5603 5603 5602 5602 5601 5600 5600 5599 5598 5597 5595 5594 5593 5592 5591 5590 5589 5587 5585 5584 5583 5582 5581 5580 5579 5578 5578 5577 5578 5578 5577 5577 5576 5576 5576 5575 5574 5573 5571 5570 5570 5569
5594 5595 5595 5595 5594 5594 5593 5592 5592 5591 5590 5589 5587 5586 5585 5584 5583 5582 5581 5579 5578 5576 5575 5574 5573 5573 5572 5571 5571 5571 5571 5571 5571 5571 5570 5570 5569 5568 5568 5566 5565 5564 5564
5586 5587 5588 5587 5587 5586 5585 5585 5584 5583 5583 5582 5581 5580 5579 5577 5576 5575 5574 5572 5571 5569 5568 5567 5566 5565 5564 5563 5562 5562 5563 5564 5564 5564 5564 5563 5563 5562 5561 5561 5559 5558 5557
5577 5578 5580 5580 5579 5578 5578 5578 5578 5577 5576 5575 5574 5572 5571 5570 5569 5568 5567 5565 5564 5563 5561 5560 5560 5558 5557 5556 5554 5553 5553 5554 5556 5558 5557 5556 5555 5555 5555 5554 5553 5552 5551
5568 5569 5571 5571 5571 5571 5570 5570 5569 5569 5568 5567 5566 5565 5564 5563 5562 5561 5560 5558 5557 5556 5555 5553 5553 5552 5550 5549 5549 5547 5546 5545 5545 5548 5549 5548 5548 5547 5547 5547 5546 5545 5544
5559 5561 5562 5563 5563 5563 5562 5562 5561 5561 5561 5561 5559 5558 5557 5556 5555 5554 5553 5551 5550 5549 5548 5547 5546 5545 5544 5542 5541 5541 5541 5541 5538 5536 5538 5540 5540 5540 5540 5539 5539 5538 5536
5550 5552 5553 5554 5554 5554 5554 5553 5553 5553 5553 5553 5552 5550 5549 5548 5547 5546 5545 5544 5543 5542 5540 5540 5539 5538 5537 5536 5534 5533 5533 5532 5532 5530 5529 5529 5530 5531 5531 5531 5531 5530 5528
5540 5541 5543 5544 5544 5544 5544 5544 5544 5544 5544 5544 5544 5543 5542 5541 5540 5539 5538 5537 5536 5534 5533 5533 5532 5531 5530 5529 5528 5527 5526 5526 5525 5523 5522 5521 5520 5522 5523 5524 5523 5521 5520